Location: Le Domaine
(47.0333°N, 76.5361°W)
Time: 00:14:28
(UTC-05:00)

S-56A Canister/Altair - Pass Details

Date: 19 November 2019
Orbit: 633 x 2500 km, 38.9° (Epoch: 12 December)

Event Time Altitude Azimuth Distance (km) Brightness Sun altitude
Rises 16:13:32 0° 221° (SW) 5,505 13.7 1.2°
Reaches altitude 10° 16:18:05 10° 213° (SSW) 4,206 12.6 0.6°
Maximum altitude 16:26:45 29° 159° (SSE) 2,354 10.1 -0.7°
Drops below altitude 10° 16:33:02 10° 102° (ESE) 2,994 10.1 -1.7°
Sets 16:35:42 0° 90° (E) 3,724 10.5 -2.1°
